Regional & State Weather Roundups


470 
ASUS44 KLUB 180910
RWRLUB
WEST TEXAS WEATHER ROUNDUP
NATIONAL WEATHER SERVICE LUBBOCK TX
300 AM CST SUN NOV 18 2018
NOTE: "FAIR" INDICATES FEW OR NO CLOUDS BELOW 12,000 FEET WITH NO
SIGNIFICANT WEATHER AND/OR OBSTRUCTIONS TO VISIBILITY.
TXZ004-006>008-010-012-014-016-OKZ002-181000-
TEXAS PANHANDLE/OKLAHOMA PANHANDLE
  
CITY           SKY/WX    TMP DP  RH WIND       PRES   REMARKS
AMARILLO       CLOUDY    26  23  88 N18       30.27R WCI  13          
BORGER         MIX PCPN  27  23  85 N14       30.31S WCI  16          
CANADIAN       CLOUDY    28  25  91 N13       30.33R WCI  17          
DALHART        CLOUDY    26  21  81 N14       30.29R WCI  14          
DUMAS          CLOUDY    25  23  93 N14       30.28  WCI  13          
GUYMON         CLOUDY    25  21  85 N14       30.32R WCI  13          
HEREFORD       CLOUDY    28  27  93 N14       30.28  WCI  17          
PAMPA          CLOUDY    26  25  94 N17       30.28  FOG     WCI  14  
PERRYTON       CLOUDY    26  24  93 N17       30.30  WCI  13          
$$
TXZ026-029-035-045-048-181000-
SOUTHERN PANHANDLE/SOUTH PLAINS/ROLLING PLAINS
  
CITY           SKY/WX    TMP DP  RH WIND       PRES   REMARKS
CHILDRESS      CLOUDY    32  26  78 N17G24    30.31R WCI  21          
SEMINOLE       CLOUDY    32  27  83 N13       30.31  WCI  22          
LUBBOCK        CLOUDY    31  27  85 N13       30.26R WCI  21          
PLAINVIEW      CLOUDY    28  25  90 N10G16    30.26R WCI  18          
SNYDER         CLOUDY    35  30  82 N17       30.27  WCI  25          
$$
TXZ052-054-060>062-072-078-127-140-154-169-181000-
PERMIAN BASIN/CONCHO VALLEY/BIG COUNTRY/EDWARDS PLATEAU  
  
CITY           SKY/WX    TMP DP  RH WIND       PRES   REMARKS
ABILENE        CLOUDY    38  34  85 N16       30.26R WCI  29          
BIG SPRING     CLOUDY    35  30  80 N16       30.28  WCI  25          
BRADY          CLOUDY    41  36  81 N13       30.22                   
BROWNWOOD      CLOUDY    41  36  81 N12G21    30.23R                  
JUNCTION       CLOUDY    48  41  76 N9        30.19R                  
MIDLAND        CLOUDY    35  30  82 N17G25    30.24R WCI  25          
ODESSA         CLOUDY    34  29  82 N16G23    30.25R WCI  24          
SAN ANGELO     CLOUDY    40  33  76 N10       30.23R WCI  33          
SONORA         MOCLDY    43  36  75 N15G22    30.22                   
SWEETWATER     CLOUDY    36  32  85 N14G20    30.28  WCI  27          
WINK           CLEAR     34  29  82 NE15      30.24R WCI  24          
$$
TXZ055-058-074-075-080-082-181000-
FAR WEST/SOUTHWEST MOUNTAINS/TRANS PECOS
  
CITY           SKY/WX    TMP DP  RH WIND       PRES   REMARKS
ALPINE         CLEAR     35  29  79 CALM      30.26S                  
DRYDEN           N/A     53  40  61 N15G21    30.12                   
EL PASO        CLEAR     46  27  47 CALM      30.10S                  
FORT STOCKTON  PTCLDY    36  32  85 N7        30.24R WCI  30          
MARFA            N/A     37  25  61 NE10      30.17  WCI  30          
PECOS          CLEAR     37  31  79 N9        30.27R WCI  30          
PRESIDIO       FAIR      52  24  34 N6        30.11F                  
$$
TXZ014-016-019-021>030-083-181000
TEXAS TECH WEST TEXAS MESONET/TEXAS PANHANDLE/NORTHERN SOUTH PLAINS
  
CITY           SKY/WX    TMP DP  RH WIND       PRES   REMARKS
ABERNATHY 5ENE   N/A     29  27  92 N14       30.29R WCI  19          
AMARILLO 9NNE    N/A     26  25  96 N13       30.30S WCI  15          
AMARILLO 7SSE    N/A     26  25  99 N14       30.29R WCI  14          
AMHERST 1NE      N/A     29  26  88 N13       30.28R WCI  19          
BOOTLEG 11WNW    N/A     25  24  97 N12       30.29R WCI  14          
CANADIAN 6E      N/A     24  22  93 N15       30.31R WCI  12          
CAPROCK CYN SP   N/A     29  26  86 N12       30.31R WCI  20          
CHILDRESS 2NNE   N/A     31  26  81 N13       30.32R WCI  21          
CLARENDON 2WSW   N/A     27  24  88 N14       30.30R WCI  16          
CLAUDE 12SW      N/A     26  24  96 N10G18    30.28R WCI  15          
DIMMITT 2NE      N/A     26  25  96 N13       30.28R WCI  15          
FLOYDADA 2NNE    N/A     29  25  84 N12       30.27R WCI  20          
FRIONA 2NE       N/A     26  26  97 N14       30.28S WCI  15          
GOODLETT 3W      N/A     32  25  76 NW18G24   30.32R WCI  20          
HART 3N          N/A     27  26  96 N14       30.28R WCI  16          
HEREFORD 2NW     N/A     26  24  94 N13       30.30R WCI  15          
MCLEAN 1E        N/A     25  22  89 N21       30.27S WCI  10          
MEMPHIS 1NE      N/A     30  26  84 N15       30.32S WCI  19          
MULESHOE 2SSW    N/A     29  26  90 N9        30.28R WCI  20          
OLTON 6S         N/A     28  26  90 N16       30.28R WCI  17          
PALO DURO SP     N/A     26  24  89 N10       30.30R WCI  17          
PAMPA 2E         N/A     23  23  98 N16       30.28S WCI  10          
PLAINVIEW 1S     N/A     28  27  94 N12       30.28R WCI  18          
SILVERTON 7ESE   N/A     28  25  87 N14       30.27R WCI  17          
TULIA 2ENE       N/A     27  25  91 N14       30.29R WCI  16          
TURKEY 2WSW      N/A     30  25  80 NW16      30.31R WCI  19          
UMBARGER 3NNE    N/A     26  25  96 N12       30.29R WCI  16          
$$
TXZ033>036-039>041-045>048-181000
TEXAS TECH WEST TEXAS MESONET/SOUTH PLAINS  
  
CITY           SKY/WX    TMP DP  RH WIND       PRES   REMARKS
AIKEN 3WSW       N/A     28  25  86 N18       30.29R WCI  15          
ANDREWS 2NE      N/A     33  28  80 N14       30.28S WCI  23          
ANTON 6SSW       N/A     30  27  86 N14       30.28R WCI  20          
BROWNFIELD 2S    N/A     30  24  78 N14G21    30.29R WCI  20          
DENVR CTY 7WNW   N/A     29  26  87 N14       30.28R WCI  18          
GAIL 2ESE        N/A     35  28  74 N13       30.28S WCI  27          
LAMESA 2SE       N/A     33  28  82 N15G22    30.28S WCI  22          
LUBBOCK 3WNW     N/A     31  27  83 N9        30.29R WCI  23          
MORTON 1ENE      N/A     30  26  83 N10       30.28R WCI  21          
ODONNELL 1N      N/A     32  26  80 N15       30.28S WCI  21          
PLAINS 3N        N/A     29  25  84 N12       30.28S WCI  20          
RALLS 1SE        N/A     31  25  81 N10       30.28S WCI  22          
REESE CENTER     N/A     30  25  83 N15G22    30.29R WCI  19          
SEAGRAVES 1SW    N/A     31  26  82 N14       30.28R WCI  20          
SEMINOLE 2NNE    N/A     31  26  83 N17       30.28R WCI  19          
SLATON 2NE       N/A     31  25  79 N14G20    30.28S WCI  21          
SNYDER 3E        N/A     34  31  87 N14       30.28R WCI  25          
SUNDOWN 8SW      N/A     30  25  83 N14       30.28R WCI  19          
TAHOKA 3NNE      N/A     32  26  77 N14       30.28S WCI  22          
WOLFFORTH 6SSW   N/A     31  26  81 N15G21    30.28S WCI  20          
$$
TXZ031-032-036>038-042>044-181000-
TEXAS TECH WEST TEXAS MESONET/ROLLING PLAINS 
  
CITY           SKY/WX    TMP DP  RH WIND       PRES   REMARKS
ASPERMONT 3NE    N/A     35  28  76 N13       30.31R WCI  26          
FLUVANNA 3WNW    N/A     33  28  80 N18       30.28R WCI  22          
GRAHAM 5SSW      N/A     32  27  81 N13       30.28S WCI  23          
GUTHRIE 10WSW    N/A     33  26  73 N15       30.30R WCI  23          
HASKELL 1NW      N/A     35  29  80 N14G21    30.30S WCI  26          
JAYTON 1SSE      N/A     35  27  74 N14G22    30.31R WCI  25          
KNOX CITY 3NW    N/A     35  28  74 N15       30.32R WCI  25          
LK A HENRY 1NW   N/A     35  28  76 N13       30.31R WCI  26          
NORTHFIELD 1S    N/A     32  26  78 N12       30.32R WCI  23          
ODELL 4ENE       N/A     33  29  82 N17       30.32R WCI  23          
PADUCAH 10SW     N/A     32  27  80 N17       30.31R WCI  21          
POST 1NE         N/A     33  25  71 N12G17    30.29S WCI  25          
RRING SPRGS 3N   N/A     31  28  90 N14G21    30.29S WCI  20          
SEYMOUR 3NW      N/A     35  29  79 NW18      30.31R WCI  24          
SPUR 1W          N/A     33  27  76 N12       30.30R WCI  25          
WEINERT 2NNE     N/A     36  29  76 NW10      30.31R WCI  28          
WHITE RVR 6NE    N/A     33  26  75 N12       30.28S WCI  24          
$$
TXZ052-054-060>062-072-078-127-140-154-169-181000-
TEXAS TECH WEST TEXAS MESONET/PERMIAN BASIN/
CONCHO VALLEY/BIG COUNTRY/EDWARDS PLATEAU
  
CITY           SKY/WX    TMP DP  RH WIND       PRES   REMARKS
COYANOSA 2N      N/A     34  30  86 N5        30.28R WCI  29          
JUNCTION 1SSW    N/A     47  40  75 N7        30.20R                  
MERTZON 3NNE     N/A     37  32  85 N9        30.26R WCI  30          
SAN ANGELO 7NW   N/A     38  31  77 N7        30.26R WCI  33          
STRLNG CT 4WSW   N/A     35  30  81 N14       30.27R WCI  26          
ST LAWRNCE 5SW   N/A     35  30  83 N16       30.25R WCI  25          
SWEETWATR 11SW   N/A     34  32  92 N13       30.27S WCI  25          
WALL 1E          N/A     38  34  83 N14       30.26S WCI  30          
$$
TXZ055-058-074-075-080-082-181000-
TEXAS TECH WEST TEXAS MESONET/FAR WEST/SOUTHWEST MOUNTAINS/TRANS PECOS
  
CITY           SKY/WX    TMP DP  RH WIND       PRES   REMARKS
PRSMN GAP BBNP   N/A     51  38  60 N13       30.13S                  
GUADLPE MTN NP   N/A     30  28  91 NE6       30.21S WCI  24          
$$